Regional Weather Roundup
Issued by NWS Cleveland, OH

Home | Current Version | Previous Version | Graphics & Text | Print | Product List | Glossary On
Versions: 1 2 3 4 5 6 7 8 9 10 11 12 13 14 15 16 17 18 19 20 21 22 23 24 25 26 27 28 29 30 31 32 33 34 35 36 37 38 39 40 41 42 43 44 45 46 47 48 49 50
000
ASUS41 KCLE 290410
RWRCLE
OHIO REGIONAL WEATHER ROUNDUP
NATIONAL WEATHER SERVICE CLEVELAND, OH
1200 AM EDT FRI MAY 29 2015

NOTE: "FAIR" INDICATES FEW OR NO CLOUDS BELOW 12,000 FEET WITH NO
SIGNIFICANT WEATHER AND/OR OBSTRUCTIONS TO VISIBILITY.

OHZ001>008-015>018-024>027-034-035-043-044-290500-
   NORTHWEST OHIO

CITY           SKY/WX    TMP DP  RH WIND       PRES   REMARKS
DEFIANCE       FAIR      67  57  70 E10       30.17F
FINDLAY        PTCLDY    68  57  68 E8        30.17F
TOLEDO EXPRESS PTCLDY    64  54  69 E7        30.18F
TOLEDO EXEC    CLEAR     63  54  72 E8        30.20F
LIMA           PTCLDY    71  60  68 SE9       30.17F
$$

OHZ009>014-019>023-028>033-038-089-290500-
   NORTHEAST OHIO

CITY           SKY/WX    TMP DP  RH WIND       PRES   REMARKS
CLE-HOPKINS    CLEAR     67  55  65 E6        30.24F
CLE-LAKEFRONT  CLEAR     70  55  59 E6        30.22S
CUY CO. ARPT   NOT AVBL
LORAIN-ELYRIA  CLEAR     62  55  77 SE3       30.22F
ASHTABULA      CLEAR     59  54  83 E3        30.26F
AKRON-CANTON   CLEAR     68  55  63 E6        30.25S
WOOSTER        CLEAR     64  59  83 E3        30.24F
MANSFIELD      CLEAR     66  59  78 E7        30.23S
YOUNGSTOWN     CLEAR     59  57  93 E5        30.26S
$$

OHZ042-051>053-060>062-070>072-077>081-290500-
  SOUTHWEST OHIO

CITY           SKY/WX    TMP DP  RH WIND       PRES   REMARKS
CINC-COVINGTON MOCLDY    69  65  86 S7        30.17F
CINC-LUNKEN    PTCLDY    68  66  93 CALM      30.17F
HAMILTON       PTCLDY    68  63  84 NE3       30.17F
DAYTON         PTCLDY    70  62  76 SE7       30.17F
WRIGHT-PAT AFB CLEAR     71  63  74 SE5       30.17F
DAYTON GENERAL CLEAR     71  62  73 SE7       30.17F
WILMINGTON     PTCLDY    69  62  78 SE5       30.19S
$$

OHZ036-037-039>041-045>050-054>059-063>069-073>076-082>088-290500-
  CENTRAL AND SOUTHEAST OHIO

CITY           SKY/WX    TMP DP  RH WIND       PRES   REMARKS
COLUMBUS       MOCLDY    72  62  71 SE6       30.19F
OSU AIRPORT    PTCLDY    70  61  73 E6        30.19F
BOLTON FIELD   NOT AVBL
RICKENBACK AFB CLEAR     68  63  82 SE6       30.19S
NEWARK         CLEAR     65  62  90 CALM      30.20F
MARION         CLEAR     68  60  75 SE7       30.20F
LANCASTER      CLEAR     66  63  90 CALM      30.20F
ZANESVILLE     NOT AVBL
NEW PHILLY     CLEAR     65  60  84 CALM      30.24S
$$


USA.gov is the U.S. government's official web portal to all federal, state and local government web resources and services.